カタログに戻る

FENGYUN 1C DEB

LostPO
NORAD 30900·DEBRIS·🇨🇳 China

打ち上げ May 10, 1999 から Taiyuan Satellite Launch Center

Loading…

次のパス (今後24時間)

TLE

古いSource: Space-Track

元期: Jun 24, 2024, 00:30 UTC

1 30900U 99025AYN 24176.02131376  .00005630  00000-0  24542-2 0  9993
2 30900  99.2898 105.4355 0064126 196.9203 162.9835 14.23270029890305

AllMySatでFENGYUN 1C DEBをリアルタイム追跡

Download on the App Store